Tracking 19847 objects as of 15-Sep-2019
HD Live streaming from Space Station
objects crossing your sky now

COSMOS 1375 DEB

Track COSMOS 1375 DEB now!
10-day predictions


NORAD ID: 17807
Int'l Code: 1982-055AZ
Perigee: 940.1 km
Apogee: 1,010.6 km
Inclination: 65.8 °
Period: 104.4 minutes
Semi major axis: 7346 km
RCS: 0.033 m2 (small)
Launch date: June 6, 1982
Source: Commonwealth of Independent States (former USSR) (CIS)
Launch site: PLESETSK MISSILE AND SPACE COMPLEX (PKMTR)

Note: This is SATELLITE DEBRIS
aabbcc
Your satellite tracking list
Your tracking list is empty




NASA's NSSDC Master Catalog

Two Line Element Set (TLE):
1 17807U 82055AZ  19257.85344073 +.00000188 +00000-0 +26243-3 0  9998
2 17807 065.8311 132.0841 0047958 110.4266 336.0515 13.78772924699008
Source of the keplerian elements: AFSPC